Location: Grand Lay
(47.3253°N, 0.9468°E)
Time: 14:37:25
(UTC+00:00)

Gblst 52 Del rocket - Visible Passes

Search period start: 19 April 2026 00:00
Search period end: 29 April 2026 00:00
Orbit: 805 x 1364 km, 51.5° (Epoch: 19 April)

Date Brightness Start Highest point End Pass type
(mag) Time Alt. Az. Time Alt. Az. Time Alt. Az.
19 Apr 4.9 00:56:33 10° WNW 01:03:37 78° NNE 01:11:42 10° ESE visible
19 Apr 5.1 02:48:27 10° WNW 02:55:37 51° SW 03:03:35 10° SSE visible
19 Apr 4.4 20:20:36 10° SW 20:26:29 64° SE 20:33:15 10° ENE visible
19 Apr 4.9 22:12:09 10° W 22:18:28 67° N 22:25:49 10° ENE visible
20 Apr 5.0 00:04:16 10° WNW 00:11:05 68° NNE 00:18:57 10° E visible
20 Apr 4.8 01:56:07 10° WNW 02:03:20 68° SSW 02:11:28 10° SE visible
20 Apr 5.9 03:48:47 10° W 03:54:38 24° SW 04:00:55 10° S visible
20 Apr 4.7 19:28:55 10° SSW 19:34:25 45° SE 19:40:40 10° ENE visible
20 Apr 4.7 21:19:52 10° WSW 21:26:01 76° NNW 21:33:11 10° ENE visible
20 Apr 5.1 23:11:59 10° WNW 23:18:32 63° N 23:26:08 10° E visible
21 Apr 4.7 01:03:52 10° WNW 01:10:58 84° SSW 01:19:04 10° ESE visible
21 Apr 5.5 02:56:00 10° WNW 03:02:35 34° SW 03:09:47 10° SSE visible
21 Apr 4.4 20:27:41 10° WSW 20:33:41 89° SSE 20:40:37 10° ENE visible
21 Apr 5.0 22:19:39 10° W 22:26:00 62° N 22:33:21 10° E visible
22 Apr 4.8 00:11:38 10° WNW 00:18:31 81° NNE 00:26:28 10° ESE visible
22 Apr 5.1 02:03:31 10° WNW 02:10:26 47° SW 02:18:09 10° SSE visible
22 Apr 6.4 03:57:49 10° W 04:01:18 14° WSW 04:04:54 10° SSW visible
22 Apr 4.4 19:35:40 10° SW 19:41:27 69° SSE 19:48:05 10° ENE visible
22 Apr 4.9 21:27:19 10° W 21:33:29 65° N 21:40:38 10° ENE visible
22 Apr 4.9 23:19:23 10° WNW 23:26:03 70° NNE 23:32:42 14° E visible
23 Apr 4.8 01:11:11 10° WNW 01:18:10 62° SW 01:26:07 10° SE visible
23 Apr 6.4 03:04:02 10° W 03:12:38 17° SSW 03:15:07 10° S visible
23 Apr 4.7 20:35:01 10° WSW 20:41:02 72° NNW 20:47:59 10° ENE visible
23 Apr 5.0 22:27:08 10° WNW 22:33:32 63° N 22:40:04 14° E visible
24 Apr 4.6 00:18:56 10° WNW 00:25:50 80° SSW 00:26:54 67° SE visible
24 Apr 6.2 02:11:08 10° WNW 02:27:24 - SSE 02:13:42 21° W visible
24 Apr 4.5 19:42:48 10° WSW 19:48:42 86° NNW 19:55:27 10° ENE visible
24 Apr 5.0 21:34:49 10° W 21:41:01 61° N 21:48:10 10° E visible
24 Apr 4.7 23:26:44 10° WNW 23:33:27 84° NNE 23:35:43 49° ESE visible
25 Apr 5.7 01:18:36 10° WNW 01:22:34 32° W 01:22:34 32° W visible
25 Apr 5.0 20:42:30 10° W 20:48:31 63° N 20:55:27 10° ENE visible
25 Apr 4.8 22:34:30 10° WNW 22:41:00 72° NNE 22:44:54 30° E visible
26 Apr 5.0 00:26:16 10° WNW 00:31:47 51° WSW 00:31:47 51° WSW visible
26 Apr 4.8 19:50:11 10° W 19:56:04 69° NNW 20:02:49 10° ENE visible
26 Apr 4.9 21:42:16 10° WNW 21:48:31 64° N 21:54:16 17° E visible
26 Apr 4.6 23:34:02 10° WNW 23:40:44 75° SSW 23:41:09 72° S visible
27 Apr 6.4 01:26:19 10° WNW 01:28:02 17° W 01:28:02 17° W visible
27 Apr 5.0 20:49:59 10° WNW 20:56:02 60° N 21:03:01 10° E visible
27 Apr 4.6 22:41:50 10° WNW 22:48:23 88° NNE 22:50:37 49° ESE visible
28 Apr 5.8 00:33:44 10° WNW 00:37:30 29° W 00:37:30 29° W visible
28 Apr 5.0 19:57:40 10° W 20:03:34 61° N 20:10:18 10° ENE visible
28 Apr 4.7 21:49:38 10° WNW 21:55:59 74° NNE 22:00:10 27° E visible
28 Apr 5.0 23:41:22 10° WNW 23:47:04 50° WSW 23:47:04 50° WSW visible
